• MPC Preparation (Info)

  • MPEC 2010-R80 : 2010 RJ53

    The following Minor Planet Electronic Circular may be linked-to from your own Web pages, but must not otherwise be redistributed electronically.

    A form allowing access to any MPEC is at the bottom of this page.


    Read MPEC 2010-R79 Read MPEC 2010-R81


    M.P.E.C. 2010-R80                                Issued 2010 Sept. 10, 11:00 UT
    
         The Minor Planet Electronic Circulars contain information on unusual
             minor planets and routine data on comets.  They are published
       on behalf of Commission 20 of the International Astronomical Union by the
              Minor Planet Center, Smithsonian Astrophysical Observatory,
                              Cambridge, MA 02138, U.S.A.
    
                 Prepared using the Tamkin Foundation Computer Network
    
                                  MPC@CFA.HARVARD.EDU
           URL https://www.minorplanetcenter.org/iau/mpc.html  ISSN 1523-6714
    
                                       2010 RJ53
    
    Observations:
         K10R53J* C2010 09 10.36052 22 52 20.04 +07 07 45.9          15.7 V ER080703
         K10R53J  C2010 09 10.36461 22 52 20.79 +07 02 08.7          15.7 V ER080703
         K10R53J  C2010 09 10.37905 22 52 23.55 +06 42 22.2          15.7 V ER080703
         K10R53J  C2010 09 10.37972 22 52 23.70 +06 41 27.4          15.8 V ER080703
         K10R53J  C2010 09 10.38003 22 52 23.73 +06 41 01.9          15.7 V ER080703
         K10R53J  C2010 09 10.38773 22 52 24.46 +06 30 23.6          15.4 R ER080H01
         K10R53J  C2010 09 10.39607 22 52 26.17 +06 19 04.8          15.5 R ER080H01
         K10R53J  C2010 09 10.40709 22 52 28.47 +06 04 11.6          15.7 R ER080H01
         K10R53J  C2010 09 10.42144122 52 56.60 +05 52 32.1          16.3 R ER080474
         K10R53J  C2010 09 10.42190422 52 56.70 +05 51 54.6          16.3 R ER080474
         K10R53J  C2010 09 10.42236722 52 56.77 +05 51 17.8          16.4 R ER080474
         K10R53J  C2010 09 10.42283022 52 56.84 +05 50 40.7          16.3 R ER080474
         K10R53J  C2010 09 10.42329322 52 56.95 +05 50 03.4          15.9 R ER080474
         K10R53J  C2010 09 10.42364022 52 57.01 +05 49 34.9          16.3 R ER080474
         K10R53J  C2010 09 10.42410322 52 57.10 +05 48 59.0          16.6 R ER080474
         K10R53J  C2010 09 10.42456622 52 57.19 +05 48 21.3          15.9 R ER080474
         K10R53J  C2010 09 10.42502922 52 57.27 +05 47 44.4          16.0 R ER080474
         K10R53J  C2010 09 10.42549222 52 57.39 +05 47 06.3          16.7 R ER080474
         K10R53J  C2010 09 10.42595522 52 57.46 +05 46 30.3          16.4 R ER080474
         K10R53J  C2010 09 10.42641822 52 57.54 +05 45 53.4          15.8 R ER080474
         K10R53J  C2010 09 10.43382 22 52 34.66 +05 28 37.9          16.3 R ER080651
         K10R53J  C2010 09 10.43509 22 52 34.93 +05 26 56.9          16.2 R ER080651
         K10R53J  C2010 09 10.43635 22 52 35.20 +05 25 16.2          16.2 R ER080651
    
    Observer details:
    474 Mount John Observatory, Lake Tekapo.  Observers A. C. Gilmore,
        P. M. Kilmartin.  Measurer P. M. Kilmartin.  1.0-m f/7.7 reflector + CCD.
    651 Grasslands Observatory, Tucson.  Observer J. E. McGaha.  0.62-m f/5.1
        reflector + CCD.
    703 Catalina Sky Survey.  Observer A. R. Gibbs.  Measurers J. D. Ahern,
        E. C. Beshore, A. Boattini, G. J. Garradd, A. R. Gibbs, A. D. Grauer,
        R. E. Hill, R. A. Kowalski, S. M. Larson, R. H. McNaught.  0.68-m Schmidt
        + CCD.
    H01 Magdalena Ridge Observatory, Socorro.  Observer W. H. Ryan.  2.4-m f/8.9
        reflector + CCD.
    
    Orbital elements:
    2010 RJ53                                                Earth MOID = 0.0207 AU
    Epoch 2010 July 23.0 TT = JDT 2455400.5                 MPC
    M  17.87485              (2000.0)            P               Q
    n   0.89651960     Peri.   69.66715     -0.51186231     +0.85330635
    a   1.0651960      Node   167.95808     -0.85097661     -0.51947185
    e   0.4067970      Incl.   28.42990     +0.11762558     -0.04491403
    P   1.10           H   23.7           G   0.15           U   9
    Residuals in seconds of arc
    100910 703  0.3+  0.1-    100910 474  0.3+  0.5+    100910 474  0.4-  0.1+
    100910 703  0.0   0.0     100910 474  0.4+  0.1+    100910 474  0.1+  0.9-
    100910 703  0.2-  0.4-    100910 474  0.0   0.4+    100910 474  0.3-  0.1+
    100910 703  0.1+  0.3-    100910 474  0.3-  0.4+    100910 474  0.4-  0.2+
    100910 703  0.3-  0.4-    100910 474  0.0   0.2+    100910 651  0.5+  0.6-
    100910 H01  0.1+  0.5+    100910 474  0.1-  0.5-    100910 651  0.4+  0.3-
    100910 H01  0.1+  0.5+    100910 474  0.2-  0.6+    100910 651  0.3+  0.5-
    100910 H01  0.1-  0.3+    100910 474  0.2-  0.0
    
    Ephemeris:
    2010 RJ53                a,e,i = 1.07, 0.41, 28                  q = 0.6319
    Date    TT    R. A. (2000) Decl.     Delta      r     Elong.  Phase     V
    2010 09 11    22 55.25   -05 23.1    0.0279   1.035   174.8     5.1    16.4
    2010 09 12    22 58.25   -18 18.9    0.0361   1.042   165.1    14.4    17.4
    2010 09 13    23 00.31   -26 10.2    0.0456   1.048   157.1    21.9    18.2
    2010 09 14    23 01.81   -31 15.3    0.0556   1.055   151.7    26.8    18.7
    2010 09 15    23 02.98   -34 45.1    0.0659   1.062   147.8    30.3    19.2
    2010 09 16    23 03.91   -37 16.5    0.0764   1.069   144.9    32.8    19.6
    2010 09 17    23 04.68   -39 09.9    0.0871   1.076   142.5    34.7    20.0
    2010 09 18    23 05.35   -40 37.4    0.0978   1.082   140.6    36.1    20.3
    2010 09 19    23 05.93   -41 46.4    0.109    1.089   139.0    37.3    20.6
    2010 09 20    23 06.45   -42 41.7    0.120    1.096   137.5    38.2    20.8
    2010 09 21    23 06.92   -43 26.6    0.130    1.102   136.3    39.0    21.0
    2010 09 22    23 07.37   -44 03.4    0.141    1.109   135.2    39.7    21.2
    2010 09 23    23 07.79   -44 33.7    0.152    1.115   134.1    40.2    21.4
    2010 09 24    23 08.19   -44 58.9    0.163    1.121   133.2    40.7    21.6
    2010 09 25    23 08.59   -45 19.7    0.175    1.128   132.3    41.2    21.8
    2010 09 26    23 08.97   -45 37.0    0.186    1.134   131.4    41.5    21.9
    2010 09 27    23 09.36   -45 51.2    0.197    1.140   130.6    41.8    22.1
    2010 09 28    23 09.74   -46 02.8    0.208    1.147   129.9    42.1    22.2
    2010 09 29    23 10.13   -46 12.1    0.219    1.153   129.1    42.4    22.4
    2010 09 30    23 10.53   -46 19.4    0.230    1.159   128.4    42.6    22.5
    2010 10 01    23 10.93   -46 25.0    0.241    1.165   127.7    42.8    22.6
    
    Timothy B. Spahr             (C) Copyright 2010 MPC           M.P.E.C. 2010-R80
    

    Read MPEC 2010-R79 Read MPEC 2010-R81


    MPEC number:

    Enter an MPEC number in one of the following forms:

    • 1997-B01 (the full form)
    • J97B01 (the packed version of the full form)
    • B01 (the abbreviated form)